Weather History for Port Hedland, WE

Change the Weather History Date:

Monday, January 21, 2013

  Actual Average Record
Temperature  
Mean Temperature 86 °F -  
Max Temperature 96 °F 97 °F 109 °F (2003)
Min Temperature 75 °F 78 °F 71 °F (2000)
Cooling Degree Days 20    
Growing Degree Days 36 (Base 50)    
Moisture  
Dew Point 74 °F    
Average Humidity 71    
Maximum Humidity 94    
Minimum Humidity 39    
Precipitation  
Precipitation 0.00 in 0.12 in - ()
Sea Level Pressure  
Sea Level Pressure 29.66 in    
Wind  
Wind Speed 10 mph ()    
Max Wind Speed 20 mph    
Max Gust Speed -    
Visibility 7.9 miles    
Events Rain    
Averages and records for this station are not official NWS values.
T = Trace of Precipitation, MM = Missing Value Source: Averaged Metar Reports

Daily Weather History Graph

Daily Weather History Graph

Search for Another Location

Airport:

Trip Planner

Search our weather history database for the weather conditions in past years. The results will help you decide how hot, cold, wet, or windy it might be!

Date:

Astronomy

Jan. 21, 2013 Rise Set
Actual Time 5:41 AM AWST 6:51 PM AWST
Civil Twilight 5:18 AM AWST 7:15 PM AWST
Nautical Twilight 4:49 AM AWST 7:43 PM AWST
Astronomical Twilight 4:20 AM AWST 8:12 PM AWST
Moon 2:07 PM AWST (1/21) 12:44 AM AWST (1/21)
Length of Visible Light 13h 57m
Length of Day
13h 09m
Waxing Gibbous, 70% of the Moon is Illuminated
Jan 21
Waxing Gibbous
Jan 27
Full
Feb 3
Last Quarter
Feb 10
New
Feb 18
First Quarter

Hourly Weather History & Observations

Time (AWST) Temp. Heat Index Dew Point Humidity Pressure Visibility Wind Dir Wind Speed Gust Speed Precip Events Conditions
12:00 AM 76 °F - 73 °F 87% 29.73 in - SE 19.6 mph - -   Overcast
12:00 AM 75.2 °F - 73.4 °F 94% 29.71 in - SE 19.6 mph - N/A   Overcast
12:30 AM 75.2 °F - 73.4 °F 94% 29.68 in - ESE 17.3 mph - N/A   Mostly Cloudy
1:00 AM 77.0 °F - 73.4 °F 89% 29.68 in - SE 10.4 mph - N/A   Overcast
1:30 AM 77.0 °F - 73.4 °F 89% 29.65 in - East 8.1 mph - N/A   Mostly Cloudy
2:00 AM 76 °F - 74 °F 91% 29.65 in - ESE 6.9 mph - -  
2:00 AM 77.0 °F - 73.4 °F 89% 29.65 in - ESE 6.9 mph - N/A   Mostly Cloudy
2:30 AM 77.0 °F - 73.4 °F 89% 29.65 in - SSE 6.9 mph - N/A   Unknown
3:00 AM 77 °F - 74 °F 89% 29.67 in - South 5.8 mph - -  
3:00 AM 77.0 °F - 75.2 °F 94% 29.65 in - South 5.8 mph - N/A   Unknown
3:30 AM 77.0 °F - 73.4 °F 89% 29.68 in - South 12.7 mph - N/A   Scattered Clouds
4:00 AM 77.0 °F - 73.4 °F 89% 29.68 in - South 10.4 mph - N/A   Scattered Clouds
4:30 AM 77.0 °F - 75.2 °F 94% 29.65 in - South 9.2 mph - N/A   Unknown
5:00 AM 78 °F - 76 °F 90% 29.68 in - South 9.2 mph - -  
5:00 AM 78.8 °F - 75.2 °F 89% 29.68 in - South 9.2 mph - N/A   Unknown
5:30 AM 78.8 °F - 75.2 °F 89% 29.68 in - South 10.4 mph - N/A   Unknown
6:00 AM 79 °F - 76 °F 87% 29.69 in 19 mi South 11.5 mph - -   Partly Cloudy
6:00 AM 78.8 °F - 75.2 °F 89% 29.68 in 6.2 mi South 11.5 mph - N/A   Mostly Cloudy
6:30 AM 78.8 °F - 73.4 °F 83% 29.68 in 6.2 mi South 10.4 mph - N/A   Mostly Cloudy
7:00 AM 78.8 °F - 73.4 °F 83% 29.71 in 6.2 mi SSE 11.5 mph - N/A   Mostly Cloudy
7:30 AM 82.4 °F 88.2 °F 73.4 °F 74% 29.71 in 6.2 mi SE 10.4 mph - N/A   Mostly Cloudy
8:00 AM 82 °F - 72 °F 63% 29.70 in - SE 11.5 mph - -  
8:00 AM 82.4 °F 87.2 °F 71.6 °F 70% 29.68 in - SE 11.5 mph - N/A   Clear
8:30 AM 84.2 °F 89.6 °F 71.6 °F 66% 29.71 in - ESE 9.2 mph - N/A   Clear
9:00 AM 85 °F - 71 °F 54% 29.71 in 19 mi ESE 8.1 mph - -   Partly Cloudy
9:00 AM 84.2 °F 89.6 °F 71.6 °F 66% 29.71 in - ESE 8.1 mph - N/A   Clear
9:30 AM 86.0 °F 91.8 °F 71.6 °F 62% 29.71 in - ESE 8.1 mph - N/A   Unknown
10:00 AM 87.8 °F 93.8 °F 71.6 °F 58% 29.71 in - East 8.1 mph - N/A   Clear
10:30 AM 89.6 °F 96.2 °F 71.6 °F 55% 29.68 in - East 8.1 mph - N/A   Clear
11:00 AM 90 °F - 71 °F 44% 29.69 in - ENE 9.2 mph - -  
11:00 AM 89.6 °F 96.2 °F 71.6 °F 55% 29.68 in - ENE 9.2 mph - N/A   Clear
11:30 AM 89.6 °F 98.2 °F 73.4 °F 59% 29.68 in - East 5.8 mph - N/A   Clear
12:00 PM 91 °F - 72 °F 44% 29.68 in 19 mi NNE 8.1 mph - -   Scattered Clouds
12:00 PM 91.4 °F 98.4 °F 71.6 °F 52% 29.65 in - NNE 8.1 mph - N/A   Clear
12:30 PM 91.4 °F 98.4 °F 71.6 °F 52% 29.65 in - NNE 9.2 mph - N/A   Clear
1:00 PM 93.2 °F 100.5 °F 71.6 °F 49% 29.65 in 6.2 mi NNE 8.1 mph - N/A   Mostly Cloudy
1:30 PM 95.0 °F 103.2 °F 71.6 °F 47% 29.62 in 6.2 mi North 8.1 mph - N/A   Mostly Cloudy
2:00 PM 95 °F - 73 °F 39% 29.63 in - North 9.2 mph - -  
2:00 PM 95.0 °F 104.5 °F 73.4 °F 49% 29.62 in 6.2 mi North 9.2 mph - N/A   Mostly Cloudy
2:30 PM 95.0 °F 104.5 °F 73.4 °F 49% 29.59 in 6.2 mi NNE 8.1 mph - N/A   Mostly Cloudy
3:00 PM 95 °F - 73 °F 40% 29.61 in 19 mi NW 9.2 mph - -   Scattered Clouds
3:00 PM 95.0 °F 104.5 °F 73.4 °F 49% 29.59 in 6.2 mi NW 9.2 mph - N/A   Scattered Clouds
3:30 PM 96.8 °F 109.6 °F 75.2 °F 50% 29.59 in 6.2 mi NNW 12.7 mph - N/A   Unknown
4:00 PM 93.2 °F 105.0 °F 75.2 °F 56% 29.59 in 6.2 mi NW 13.8 mph - N/A   Unknown
4:30 PM 91.4 °F 102.5 °F 75.2 °F 59% 29.59 in 6.2 mi NW 15.0 mph - N/A   Unknown
5:00 PM 92 °F - 74 °F 48% 29.59 in - WNW 17.3 mph - -  
5:00 PM 93.2 °F 105.0 °F 75.2 °F 56% 29.56 in 6.2 mi WNW 17.3 mph - N/A   Unknown
5:30 PM 91.4 °F 102.5 °F 75.2 °F 59% 29.59 in 6.2 mi WNW 17.3 mph - N/A   Unknown
6:00 PM 89 °F - 76 °F 57% 29.60 in - WNW 16.1 mph - -  
6:00 PM 89.6 °F 99.8 °F 75.2 °F 62% 29.59 in 6.2 mi WNW 16.1 mph - N/A   Unknown
6:30 PM 87.8 °F 99.7 °F 77.0 °F 70% 29.62 in 6.2 mi WNW 17.3 mph - N/A   Scattered Clouds
7:00 PM 86.0 °F 95.1 °F 75.2 °F 70% 29.65 in 6.2 mi SSW 11.5 mph - N/A Rain Light Rain Showers
7:30 PM 82.4 °F 90.9 °F 77.0 °F 84% 29.68 in 6.2 mi WSW 10.4 mph - N/A Rain Light Rain Showers
8:00 PM 84 °F - 77 °F 75% 29.70 in - SSW 8.1 mph - -  
8:00 PM 84.2 °F 94.1 °F 77.0 °F 79% 29.68 in 6.2 mi SSW 8.1 mph - N/A   Overcast
8:30 PM 84.2 °F 94.1 °F 77.0 °F 79% 29.68 in 6.2 mi SW 6.9 mph - N/A   Scattered Clouds
9:00 PM 82 °F - 77 °F 81% 29.72 in - SW 8.1 mph - -  
9:00 PM 82.4 °F 90.9 °F 77.0 °F 84% 29.71 in 6.2 mi SW 8.1 mph - N/A Rain Light Rain Showers
9:30 PM 82.4 °F 90.9 °F 77.0 °F 84% 29.68 in 6.2 mi South 10.4 mph - N/A   Unknown
10:00 PM 82.4 °F 90.9 °F 77.0 °F 84% 29.68 in 6.2 mi South 10.4 mph - N/A   Unknown
10:30 PM 82.4 °F 90.9 °F 77.0 °F 84% 29.68 in 6.2 mi SW 5.8 mph - N/A   Unknown
11:00 PM 82 °F - 76 °F 77% 29.70 in - WSW 8.1 mph - -  
11:00 PM 82.4 °F 89.5 °F 75.2 °F 79% 29.68 in 6.2 mi WSW 8.1 mph - N/A   Unknown
11:30 PM 80.6 °F 87.1 °F 77.0 °F 89% 29.68 in 6.2 mi WSW 9.2 mph - N/A Rain Light Rain